Location: Jaite
(41.2884°N, 81.5737°W)
Time: 16:55:48
(UTC+00:00)

NOSS 8 (H) - Pass Details

Date: 18 January 2020
Orbit: 393 x 1784 km, 63.3° (Epoch: 21 February)

Event Time Altitude Azimuth Distance (km) Brightness Sun altitude
Exits shadow 11:10:47 47° 342° (NNW) 534 4.5 -18.1°
Drops below altitude 10° 11:13:20 10° 26° (NNE) 1,442 7.1 -17.7°
Sets 11:15:24 0° 31° (NNE) 2,339 8.3 -17.3°
